Find Starlink 3308

NORAD ID: 50846 Int'l Des: 2022-001 Owner: SPXS Country: US Constellation: starlink operational
LEOCIRCULAR

Current View

Loading 3D Globe...

About Starlink 3308

Description loading...

Upcoming Passes

Passes for default location (London). Set your location on the main map for personalized predictions.

Altitude History

Loading altitude history...

Two-Line Element Set

1 50846U 22001AV 26151.20750979 .00000049 00000-0 21193-4 0 9995
2 50846 53.1953 168.7910 0001305 66.9604 293.1525 15.08833224242723
Epoch: May 31, 2026 • Age: 4 hours

Current Status

Altitude 554.1 km
Velocity 7.58 km/s
Sub-Earth Point -40.78°S, 1.13°E
Launch Date Jan 6, 2022
Age 4.3 years
Type internet

Technical Details

Classification Payload
Mass 297.00 kg
Dry Mass 275.00 kg
Total Mass 297.00 kg
Length 0.20 m
Diameter 2.80 m
Span 9.00 m
Shape Box + pan
Manufacturer SPXS
Bus Type Starlink
Phase Status In Orbit
Owner/State SPXS/US

Most Searched